641  
ASUS43 KJKL 211510  
RWRJKL  
 
EAST KENTUCKY HOURLY WEATHER ROUNDUP  
NATIONAL WEATHER SERVICE JACKSON KY  
1100 AM EDT SAT MAY 21 2022  
 
NOTE: "FAIR" INDICATES FEW OR NO CLOUDS BELOW 12,000 FEET WITH  
NO SIGNIFICANT WEATHER AND/OR S TO VISIBILITY
.  
 
* THESE REPORTS ARE NOT UNDER NWS QUALITY CONTROL AND MAY NOT  
REPORT WEATHER SUCH AS PRECIPITATION AND FOG.
 
 
KYZ079-080-083-085-087-088-110-112-115-119-120-211600   
..EASTERN KENTUCKY
 
 
 
CITY SKY/WX TMP DP RH WIND PRES REMARKS
 
JACKSON SUNNY 80 68 66 VRB3 30.12R  
LONDON PTSUNNY 77 67 71 SW13 30.12S  
SOMERSET* MOSUNNY 79 70 73 S9 30.09S  
MONTICELLO* MOSUNNY 82 71 69 S10 30.11S  
WILLIAMSBURG* FAIR 77 68 73 SW6 30.13S  
MIDDLESBORO* PTSUNNY 80 68 67 S7 30.15S  
HARLAN APT* PTSUNNY 77 65 67 W5 30.16S  
PIKE CO APT* PTSUNNY 78 66 67 SW3 30.14S  
BIG SANDY APT* SUNNY 81 67 61 SW8 30.13S  
MOREHEAD APT* SUNNY 81 66 61 S15 30.08S  
ASHLAND* SUNNY 82 69 64 S10G17 30.06S  

 
 
KYZ035-036-041-042-044-050-067-078-099-211600   
..CENTRAL KENTUCKY
 
 
 
CITY SKY/WX TMP DP RH WIND PRES REMARKS
 
MT STERLING* SUNNY 81 68 65 SW10 30.08S  
FLEMING/MASON* PTSUNNY 80 67 65 W10G16 30.07R  
DANVILLE* SUNNY 81 68 65 SW8G20 30.08S  
RICHMOND* FAIR 81 68 65 SW12G17 30.09S  
LEXINGTON SUNNY 82 69 64 S14 30.05S  
FRANKFORT MOSUNNY 82 69 64 S16 30.02S  
LOUISVILLE PTSUNNY 84 70 62 S13 29.99R  
LEBANON* FAIR 81 72 74 S13G18 30.05S  
GLASGOW* MOSUNNY 82 71 69 S9 30.04S  
BOWLING GREEN PTSUNNY 84 70 62 SW14 30.02S  

 
 
KYZ091>093-OHZ055-061-077-WVZ005-015-034-035-042-211600   
..SOUTHERN OHIO/WEST VIRGINIA
 
 
 
CITY SKY/WX TMP DP RH WIND PRES REMARKS
 
COVINGTON PTSUNNY 80 71 74 SW16G22 30.00R  
COLUMBUS MOSUNNY 82 70 66 SW15G22 30.00R  
DAYTON PTSUNNY 81 66 60 SW17 30.00S  
WILMINGTON SUNNY 81 69 67 SW13G26 30.01R  
HUNTINGTON SUNNY 83 66 56 SW10G17 30.07S  
CHARLESTON MOSUNNY 83 64 52 SW14G23 30.09S  
PINEVILLE* CLOUDY 82 65 56 MISG 30.21S  
BECKLEY SUNNY 78 61 55 SW9G20 30.20R  
BLUEFIELD PTSUNNY 75 60 59 W12 30.23R  
LOGAN CO APT* FAIR 81 66 61 S6 30.15R  

 
 
VAZ002-007-008-TNZ017-027-036-066-071-211600   
..SOUTHWEST VIRGINIA/EAST TENNESSEE
 
 
 
CITY SKY/WX TMP DP RH WIND PRES REMARKS
 
WISE* MOSUNNY 72 63 73 SW13 30.24S  
JONESVILLE* FAIR 77 66 69 SW9 30.18S  
ABINGDON* MOSUNNY 80 64 59 W7 30.21S  
BRISTOL PTSUNNY 80 63 55 W10 30.18S  
MORRISTOWN* PTSUNNY 81 68 65 W10 30.15S  
KNOXVILLE PTSUNNY 81 66 60 SW14G20 30.13F  
LAFOLLETTE* PTSUNNY 81 68 65 S9 30.17F  
OAK RIDGE CLOUDY 78 69 73 CALM 30.15S  
CROSSVILLE PTSUNNY 75 67 76 VRB6 30.16S  
NASHVILLE MOSUNNY 83 65 54 SW13G23 30.06R  

 
   
..KEY TO REMARKS
 
 
VSB - VISIBILITY IN MILES  
WCI - WIND CHILL INDEX  
HX - HEAT INDEX  
 

 
 
 
CLICK HERE TO GO TO PREVIOUS BULLETINS.

The Nexlab KY Page Main Text Page